Moriarty, NM

10:51 AM MST on December 15, 2017 (GMT -0700)
Moriarty

Weather History for K0E0 - March, 2013

Change the Weather History Date:

Saturday, March 2, 2013

  Actual Average (KABQ) Record (KABQ)
Temperature  
Mean Temperature 40 °F -  
Max Temperature 60 °F 59 °F 76 °F (1904)
Min Temperature 20 °F 32 °F 6 °F (1922)
Degree Days  
Heating Degree Days 25    
Moisture  
Dew Point 23 °F    
Average Humidity 53    
Maximum Humidity 91    
Minimum Humidity 21    
Precipitation  
Precipitation 0.00 in - - ()
Sea Level Pressure  
Sea Level Pressure 30.34 in    
Wind  
Wind Speed 4 mph (NNW)    
Max Wind Speed 10 mph    
Max Gust Speed -    
Visibility 10 miles    
Events      
Averages and records for this station are not official NWS values.
T = Trace of Precipitation, MM = Missing Value Source: NWS Daily Summary

Daily Weather History Graph

Daily Weather History Graph

Search for Another Location

Airport or City:

Trip Planner

Search our weather history database for the weather conditions in past years. The results will help you decide how hot, cold, wet, or windy it might be!

Date:

Astronomy

Mar. 02, 2013 Rise Set
Actual Time 6:31 AM MST 6:00 PM MST
Civil Twilight 6:06 AM MST 6:26 PM MST
Nautical Twilight 5:37 AM MST 6:55 PM MST
Astronomical Twilight 5:07 AM MST 7:24 PM MST
Moon 11:28 PM MST (3/2) 9:15 AM MST (3/2)
Length of Visible Light 12h 19m
Length of Day
11h 29m
Waning Gibbous, 73% of the Moon is Illuminated
Mar 2
Waning Gibbous
Mar 4
Last Quarter
Mar 11
New
Mar 19
First Quarter
Mar 27
Full

Hourly Weather History & Observations

Time (MST) Temp. Windchill Dew Point Humidity Pressure Visibility Wind Dir Wind Speed Gust Speed Precip Events Conditions
12:15 AM 30.0 °F 24.1 °F 23.9 °F 78% 30.38 in 10.0 mi NE 5.8 mph - N/A   Clear
12:35 AM 30.7 °F 24.9 °F 24.4 °F 77% 30.39 in 10.0 mi ENE 5.8 mph - N/A   Clear
12:55 AM 30.9 °F 27.5 °F 23.9 °F 75% 30.39 in 10.0 mi NE 3.5 mph - N/A   Clear
1:15 AM 30.0 °F 26.5 °F 23.9 °F 78% 30.39 in 10.0 mi NNW 3.5 mph - N/A   Clear
1:35 AM 27.9 °F - 23.0 °F 82% 30.39 in 10.0 mi Calm Calm - N/A   Clear
1:55 AM 31.1 °F - 23.9 °F 75% 30.39 in 10.0 mi Calm Calm - N/A   Clear
2:15 AM 28.6 °F 22.4 °F 22.8 °F 79% 30.39 in 10.0 mi ENE 5.8 mph - N/A   Clear
2:35 AM 29.3 °F - 22.1 °F 75% 30.38 in 10.0 mi Calm Calm - N/A   Clear
2:55 AM 29.1 °F - 21.6 °F 73% 30.39 in 10.0 mi Calm Calm - N/A   Clear
3:15 AM 28.2 °F - 21.2 °F 75% 30.38 in 10.0 mi Calm Calm - N/A   Clear
3:35 AM 25.7 °F 20.1 °F 20.8 °F 82% 30.39 in 10.0 mi NW 4.6 mph - N/A   Clear
4:15 AM 22.6 °F 16.5 °F 19.4 °F 87% 30.40 in 10.0 mi NNW 4.6 mph - N/A   Clear
5:15 AM 21.0 °F 14.6 °F 18.9 °F 91% 30.40 in 10.0 mi NNW 4.6 mph - N/A   Clear
5:35 AM 20.5 °F 14.0 °F 18.3 °F 91% 30.41 in 10.0 mi NE 4.6 mph - N/A   Clear
5:55 AM 20.7 °F 13.0 °F 18.0 °F 89% 30.41 in 10.0 mi NNE 5.8 mph - N/A   Clear
6:15 AM 21.0 °F 14.6 °F 18.5 °F 90% 30.41 in 10.0 mi North 4.6 mph - N/A   Clear
6:35 AM 21.0 °F 16.2 °F 18.1 °F 89% 30.41 in 10.0 mi NNW 3.5 mph - N/A   Clear
6:55 AM 20.3 °F 15.4 °F 17.6 °F 89% 30.41 in 10.0 mi NNW 3.5 mph - N/A   Clear
7:15 AM 23.2 °F - 20.5 °F 89% 30.42 in 10.0 mi Calm Calm - N/A   Clear
7:35 AM 26.2 °F - 23.0 °F 88% 30.43 in 10.0 mi Calm Calm - N/A   Clear
7:55 AM 28.6 °F 24.8 °F 23.5 °F 81% 30.43 in 10.0 mi North 3.5 mph - N/A   Clear
8:15 AM 32.0 °F - 24.8 °F 75% 30.43 in 10.0 mi Calm Calm - N/A   Clear
8:35 AM 33.6 °F - 25.0 °F 71% 30.43 in 10.0 mi Calm Calm - N/A   Clear
8:55 AM 37.6 °F - 25.3 °F 61% 30.43 in 10.0 mi Calm Calm - N/A   Clear
9:15 AM 39.6 °F 37.4 °F 24.8 °F 56% 30.43 in 10.0 mi NNE 3.5 mph - N/A   Clear
9:35 AM 41.9 °F 39.0 °F 24.1 °F 49% 30.43 in 10.0 mi NE 4.6 mph - N/A   Clear
9:55 AM 44.1 °F - 23.9 °F 45% 30.43 in 10.0 mi Calm Calm - N/A   Clear
10:15 AM 45.7 °F 42.7 °F 23.5 °F 42% 30.41 in 10.0 mi NE 5.8 mph - N/A   Clear
10:35 AM 47.3 °F - 22.8 °F 38% 30.41 in 10.0 mi NNE 5.8 mph - N/A   Clear
10:55 AM 48.6 °F - 23.0 °F 37% 30.41 in 10.0 mi North 5.8 mph - N/A   Clear
11:15 AM 49.8 °F - 23.4 °F 36% 30.40 in 10.0 mi North 4.6 mph - N/A   Clear
11:35 AM 52.0 °F - 24.3 °F 34% 30.39 in 10.0 mi NNE 5.8 mph - N/A   Clear
11:55 AM 53.1 °F - 24.6 °F 33% 30.38 in 10.0 mi ENE 3.5 mph - N/A   Clear
12:15 PM 54.5 °F - 26.1 °F 33% 30.37 in 10.0 mi SSE 9.2 mph - N/A   Clear
12:35 PM 53.8 °F - 25.5 °F 34% 30.35 in 10.0 mi SE 5.8 mph - N/A   Clear
12:55 PM 55.0 °F - 25.0 °F 31% 30.34 in 10.0 mi SSE 4.6 mph - N/A   Clear
1:15 PM 57.0 °F - 27.0 °F 32% 30.34 in 10.0 mi SE 6.9 mph - N/A   Clear
1:35 PM 57.2 °F - 27.5 °F 32% 30.33 in 10.0 mi SE 9.2 mph - N/A   Clear
1:55 PM 57.6 °F - 26.2 °F 30% 30.32 in 10.0 mi South 5.8 mph - N/A   Clear
2:15 PM 58.5 °F - 27.0 °F 30% 30.32 in 10.0 mi South 6.9 mph - N/A   Clear
2:35 PM 59.2 °F - 27.0 °F 29% 30.31 in 10.0 mi South 5.8 mph - N/A   Clear
2:55 PM 59.2 °F - 26.4 °F 29% 30.31 in 10.0 mi South 3.5 mph - N/A   Clear
3:15 PM 59.9 °F - 26.8 °F 28% 30.29 in 10.0 mi South 4.6 mph - N/A   Clear
3:35 PM 60.3 °F - 26.8 °F 28% 30.29 in 10.0 mi SE 5.8 mph - N/A   Clear
3:55 PM 59.9 °F - 25.9 °F 27% 30.29 in 10.0 mi SE 4.6 mph - N/A   Clear
4:15 PM 60.3 °F - 26.6 °F 28% 30.28 in 10.0 mi East 5.8 mph - N/A   Clear
4:35 PM 60.4 °F - 24.8 °F 26% 30.28 in 10.0 mi Calm Calm - N/A   Clear
4:55 PM 60.3 °F - 24.6 °F 26% 30.27 in 10.0 mi Calm Calm - N/A   Clear
5:15 PM 60.1 °F - 19.6 °F 21% 30.27 in 10.0 mi WNW 6.9 mph - N/A   Clear
5:35 PM 57.6 °F - 21.0 °F 24% 30.27 in 10.0 mi West 9.2 mph - N/A   Clear
5:55 PM 54.1 °F - 22.1 °F 29% 30.27 in 10.0 mi WSW 9.2 mph - N/A   Clear
6:15 PM 51.4 °F - 22.1 °F 32% 30.26 in 10.0 mi West 10.4 mph - N/A   Clear
6:35 PM 50.2 °F - 21.9 °F 33% 30.26 in 10.0 mi West 9.2 mph - N/A   Clear
6:55 PM 43.7 °F 39.7 °F 26.1 °F 50% 30.26 in 10.0 mi South 6.9 mph - N/A   Clear
7:15 PM 48.6 °F - 21.2 °F 34% 30.26 in 10.0 mi SSW 5.8 mph - N/A   Clear
7:35 PM 46.4 °F 42.9 °F 21.9 °F 38% 30.26 in 10.0 mi SW 6.9 mph - N/A   Clear
7:55 PM 42.4 °F 37.5 °F 23.7 °F 48% 30.26 in 10.0 mi SSW 8.1 mph - N/A   Clear
8:15 PM 39.7 °F 33.7 °F 24.6 °F 55% 30.26 in 10.0 mi SW 9.2 mph - N/A   Clear
8:35 PM 39.7 °F 33.2 °F 24.6 °F 55% 30.27 in 10.0 mi WSW 10.4 mph - N/A   Clear
8:55 PM 40.1 °F 35.3 °F 24.3 °F 53% 30.27 in 10.0 mi WSW 6.9 mph - N/A   Clear
9:15 PM 42.6 °F 39.0 °F 22.5 °F 45% 30.28 in 10.0 mi WSW 5.8 mph - N/A   Clear
9:35 PM 43.5 °F - 22.3 °F 43% 30.28 in 10.0 mi Calm Calm - N/A   Clear
9:55 PM 45.9 °F 44.6 °F 20.3 °F 36% 30.28 in 10.0 mi NW 3.5 mph - N/A   Clear
10:15 PM 42.4 °F 38.8 °F 21.7 °F 44% 30.26 in 10.0 mi WNW 5.8 mph - N/A   Clear
10:35 PM 41.4 °F 35.7 °F 21.6 °F 45% 30.26 in 10.0 mi WNW 9.2 mph - N/A   Clear
10:55 PM 38.5 °F 33.4 °F 21.9 °F 51% 30.25 in 10.0 mi WNW 6.9 mph - N/A   Clear
11:15 PM 36.7 °F 30.5 °F 23.0 °F 58% 30.25 in 10.0 mi WNW 8.1 mph - N/A   Clear
11:35 PM 36.9 °F 34.3 °F 22.8 °F 57% 30.25 in 10.0 mi North 3.5 mph - N/A   Clear
11:55 PM 34.7 °F 31.8 °F 23.4 °F 63% 30.23 in 10.0 mi ENE 3.5 mph - N/A   Clear